Location: Ferchesar
(52.6477°N, 12.4298°E)
Time: 22:58:05
(UTC+01:00)

Tiros 1 despin weight - Pass Details

Date: 11 December 2021
Orbit: 592 x 641 km, 48.2° (Epoch: 23 January)

Event Time Altitude Azimuth Distance (km) Brightness Sun altitude
Rises 16:35:16 0° 273° (W) 2,829 ? -5.8°
Reaches altitude 10° 16:38:48 10° 243° (WSW) 1,921 ? -6.3°
Maximum altitude 16:40:36 12° 219° (SW) 1,766 ? -6.5°
Drops below altitude 10° 16:42:25 10° 194° (SSW) 1,916 ? -6.7°
Sets 16:45:57 0° 165° (SSE) 2,816 ? -7.2°
